Volver al catálogo

STARLINK-38190

ActivoComunicacionesSSO
NORAD 100219·PAYLOAD·🇺🇸 United States

Lanzado Aug 4, 2026 desde Vandenberg Space Force Base

Loading…

Próximos Pases (próximas 24 horas)

TLE

ActualizadoSource: Space-Track

Época: Sep 14, 2026, 21:42 UTC

1 A0219U 26177G   26257.90433338  .00019018  00000-0  35032-3 0  9995
2 A0219  97.2829 308.6386 0001452  72.3314 287.8096 15.49202899  6495

Sigue STARLINK-38190 en tiempo real con AllMySat

Download on the App Store